XTAR-EUR

Last updated on Sat Jul 05 2025 00:02:44 GMT+0000 (Coordinated Universal Time)

1 28542U 05005A 25184.36168411 .00000159 00000+0 00000+0 0 9994 2 28542 3.4337 81.0801 0005191 17.3093 342.4401 1.00272706 74699
UTC large
Height (km)
Speed (km/s)
/
Latitude / Longitude
Inclination (degrees)
Orbital Period (minutes)
Azimuth
Elevation
Range (km)
Doppler Factor

Next 0 passes for location: London (51.5072 / 0.1276)

Sorry there are no passes over London.